Weather History for KTVR - May, 2013

Change the Weather History Date:

Monday, May 20, 2013

  Actual Average Record
Temperature  
Mean Temperature 81 °F 74 °F  
Max Temperature 89 °F 85 °F 92 °F (2008)
Min Temperature 73 °F 63 °F 44 °F (2007)
Degree Days  
Heating Degree Days 0 0  
Month to date heating degree days 52 9  
Since 1 July heating degree days 2332 2350  
Cooling Degree Days 16 9  
Month to date cooling degree days 87 138  
Year to date cooling degree days 209 256  
Growing Degree Days 31 (Base 50)    
Moisture  
Dew Point 71 °F    
Average Humidity 74    
Maximum Humidity 93    
Minimum Humidity 55    
Precipitation  
Precipitation 0.00 in 0.16 in 1.47 in (1983)
Month to date precipitation 3.72 3.39  
Year to date precipitation 33.96 23.73  
Sea Level Pressure  
Sea Level Pressure 29.96 in    
Wind  
Wind Speed 9 mph (South)    
Max Wind Speed 20 mph    
Max Gust Speed 25 mph    
Visibility 10 miles    
Events      
T = Trace of Precipitation, MM = Missing Value Source: NWS Daily Summary

Daily Weather History Graph

Daily Weather History Graph

Search for Another Location

Airport or City:

Trip Planner

Search our weather history database for the weather conditions in past years. The results will help you decide how hot, cold, wet, or windy it might be!

Date:

Astronomy

May. 20, 2013 Rise Set
Actual Time 6:02 AM CDT 7:58 PM CDT
Civil Twilight 5:35 AM CDT 8:26 PM CDT
Nautical Twilight 5:02 AM CDT 8:59 PM CDT
Astronomical Twilight 4:27 AM CDT 9:34 PM CDT
Moon 3:21 PM CDT (5/20) 2:40 AM CDT (5/20)
Length of Visible Light 14h 50m
Length of Day
13h 56m
Waxing Gibbous, 75% of the Moon is Illuminated
May 20
Waxing Gibbous
May 24
Full
May 31
Last Quarter
Jun 8
New
Jun 16
First Quarter

Hourly Weather History & Observations

Time (CDT) Temp. Heat Index Dew Point Humidity Pressure Visibility Wind Dir Wind Speed Gust Speed Precip Events Conditions
12:53 AM 75.0 °F - 71.1 °F 87% 29.95 in 10.0 mi South 9.2 mph - N/A   Clear
1:53 AM 73.9 °F - 71.1 °F 91% 29.94 in 9.0 mi SSE 9.2 mph - N/A   Clear
2:33 AM 73.4 °F - 71.6 °F 94% 29.93 in 9.0 mi SSE 9.2 mph - N/A   Mostly Cloudy
2:53 AM 73.9 °F - 71.1 °F 91% 29.96 in 9.0 mi SSE 6.9 mph - N/A   Overcast
3:53 AM 73.9 °F - 71.1 °F 91% 29.97 in 10.0 mi SSE 6.9 mph - N/A   Overcast
4:53 AM 73.9 °F - 71.1 °F 91% 29.97 in 10.0 mi SSE 5.8 mph - N/A   Overcast
5:53 AM 73.0 °F - 70.0 °F 90% 29.98 in 9.0 mi South 4.6 mph - N/A   Scattered Clouds
6:53 AM 73.9 °F - 71.1 °F 91% 30.00 in 7.0 mi South 3.5 mph - N/A   Overcast
7:53 AM 75.9 °F - 72.0 °F 87% 30.01 in 10.0 mi South 5.8 mph - N/A   Overcast
9:53 AM 81.0 °F 85.2 °F 72.0 °F 74% 30.01 in 10.0 mi South 12.7 mph - N/A   Clear
10:33 AM 82.4 °F 87.2 °F 71.6 °F 70% 29.99 in 10.0 mi South 10.4 mph - N/A   Mostly Cloudy
10:53 AM 82.0 °F 86.7 °F 72.0 °F 71% 30.01 in 10.0 mi South 10.4 mph 16.1 mph N/A   Mostly Cloudy
11:08 AM 84.2 °F 89.6 °F 71.6 °F 66% 29.99 in 10.0 mi South 15.0 mph 23.0 mph N/A   Mostly Cloudy
11:53 AM 84.9 °F 90.1 °F 71.1 °F 63% 30.00 in 10.0 mi South 17.3 mph 21.9 mph N/A   Partly Cloudy
12:53 PM 84.9 °F 89.4 °F 70.0 °F 61% 29.99 in 10.0 mi South 11.5 mph 20.7 mph N/A   Mostly Cloudy
1:53 PM 88.0 °F 94.7 °F 72.0 °F 59% 29.97 in 10.0 mi SSW 8.1 mph 19.6 mph N/A   Mostly Cloudy
2:53 PM 89.1 °F 95.0 °F 71.1 °F 55% 29.95 in 10.0 mi South 10.4 mph 16.1 mph N/A   Clear
3:53 PM 89.1 °F 95.0 °F 71.1 °F 55% 29.94 in 10.0 mi SSW 6.9 mph 16.1 mph N/A   Partly Cloudy
4:53 PM 89.1 °F 95.0 °F 71.1 °F 55% 29.91 in 10.0 mi South 12.7 mph 16.1 mph N/A   Partly Cloudy
5:53 PM 88.0 °F 92.9 °F 70.0 °F 55% 29.89 in 10.0 mi South 9.2 mph - N/A   Clear
6:53 PM 86.0 °F 91.5 °F 71.1 °F 61% 29.87 in 10.0 mi South 8.1 mph - N/A   Clear
7:53 PM 82.9 °F 87.5 °F 71.1 °F 67% 29.87 in 10.0 mi SSE 9.2 mph - N/A   Partly Cloudy
9:53 PM 81.0 °F 85.2 °F 72.0 °F 74% 29.91 in 10.0 mi SSE 11.5 mph - N/A   Scattered Clouds
10:53 PM 80.1 °F 83.8 °F 72.0 °F 76% 29.94 in 10.0 mi South 11.5 mph - N/A   Partly Cloudy
11:53 PM 78.1 °F - 72.0 °F 81% 29.95 in 10.0 mi South 9.2 mph - N/A   Partly Cloudy